| time (UTC) | temp F | wind direction | speed MPH | gust MPH | rain 1hr in | rain 24hr in | rain mn in | humidity % | barometer mb |
| 20260504173010 | 67 | 257 | 11.0 | 16.0 | 0.00 | 0.00 | 0.00 | 45 | 998.8 |
| 20260504171510 | 68 | 267 | 10.0 | 21.0 | 0.00 | 0.00 | 0.00 | 44 | 998.8 |
| 20260504081554 | 49 | 170 | 0.0 | 4.0 | 0.00 | 0.00 | 0.00 | 61 | 1000.9 |
| 20260504050015 | 53 | 189 | 0.0 | 4.0 | 0.00 | 0.00 | 0.00 | 49 | 1003.6 |
| 20260504044516 | 53 | 193 | 0.0 | 4.0 | 0.00 | 0.00 | 0.00 | 48 | 1003.8 |
| 20260504043011 | 54 | 238 | 0.0 | 0.0 | 0.00 | 0.00 | 0.00 | 47 | 1004.0 |
| 20260504041609 | 54 | 239 | 0.0 | 0.0 | 0.00 | 0.00 | 0.00 | 46 | 1004.2 |
| 20260504040010 | 54 | 241 | 0.0 | 0.0 | 0.00 | 0.00 | 0.00 | 47 | 1004.5 |
| 20260504034507 | 55 | 241 | 0.0 | 0.0 | 0.00 | 0.00 | 0.00 | 46 | 1004.6 |
| 20260504033006 | 56 | 241 | 0.0 | 0.0 | 0.00 | 0.00 | 0.00 | 46 | 1004.8 |
| 20260504031504 | 56 | 241 | 0.0 | 0.0 | 0.00 | 0.00 | 0.00 | 45 | 1004.9 |
| 20260504030004 | 57 | 241 | 0.0 | 0.0 | 0.00 | 0.00 | 0.00 | 44 | 1004.9 |
| 20260504024504 | 57 | 242 | 0.0 | 0.0 | 0.00 | 0.00 | 0.00 | 43 | 1004.9 |
| 20260504023003 | 57 | 242 | 0.0 | 0.0 | 0.00 | 0.00 | 0.00 | 44 | 1004.9 |
| 20260504021501 | 58 | 242 | 0.0 | 0.0 | 0.00 | 0.00 | 0.00 | 46 | 1004.9 |
| 20260504020001 | 60 | 242 | 0.0 | 0.0 | 0.00 | 0.00 | 0.00 | 39 | 1005.0 |
| 20260504014604 | 61 | 242 | 0.0 | 0.0 | 0.00 | 0.00 | 0.00 | 40 | 1004.9 |
| 20260504013112 | 63 | 242 | 0.0 | 1.0 | 0.00 | 0.00 | 0.00 | 40 | 1005.0 |
| 20260504011559 | 64 | 242 | 0.0 | 0.0 | 0.00 | 0.00 | 0.00 | 41 | 1005.0 |
| 20260504010114 | 65 | 242 | 1.0 | 4.0 | 0.00 | 0.00 | 0.00 | 47 | 1005.0 |
| 20260504004557 | 65 | 246 | 3.0 | 8.0 | 0.00 | 0.00 | 0.00 | 49 | 1005.1 |
| 20260504003055 | 66 | 246 | 5.0 | 10.0 | 0.00 | 0.00 | 0.00 | 46 | 1005.0 |
| 20260504001602 | 67 | 253 | 8.0 | 12.0 | 0.00 | 0.00 | 0.00 | 41 | 1005.0 |
| 20260504000057 | 68 | 242 | 10.0 | 19.0 | 0.00 | 0.00 | 0.00 | 35 | 1005.0 |
| 20260503234553 | 69 | 251 | 14.0 | 20.0 | 0.00 | 0.00 | 0.00 | 39 | 1005.0 |
| 20260503233100 | 69 | 242 | 9.0 | 17.0 | 0.00 | 0.00 | 0.00 | 38 | 1005.3 |
| 20260503231550 | 69 | 269 | 8.0 | 15.0 | 0.00 | 0.00 | 0.00 | 35 | 1005.2 |
| 20260503230049 | 69 | 247 | 13.0 | 17.0 | 0.00 | 0.00 | 0.00 | 33 | 1005.3 |
| 20260503224549 | 69 | 246 | 9.0 | 20.0 | 0.00 | 0.00 | 0.00 | 37 | 1005.4 |
| 20260503223048 | 70 | 261 | 7.0 | 20.0 | 0.00 | 0.00 | 0.00 | 34 | 1005.3 |
| 20260503221650 | 69 | 251 | 12.0 | 17.0 | 0.00 | 0.00 | 0.00 | 36 | 1005.3 |
| 20260503220057 | 69 | 261 | 12.0 | 16.0 | 0.00 | 0.00 | 0.00 | 33 | 1005.2 |
| 20260503214545 | 70 | 248 | 11.0 | 19.0 | 0.00 | 0.00 | 0.00 | 31 | 1005.4 |
| 20260503213043 | 70 | 280 | 10.0 | 21.0 | 0.00 | 0.00 | 0.00 | 36 | 1005.5 |
| 20260503211542 | 69 | 253 | 13.0 | 21.0 | 0.00 | 0.00 | 0.00 | 32 | 1005.5 |
| 20260503210050 | 70 | 259 | 12.0 | 22.0 | 0.00 | 0.00 | 0.00 | 35 | 1005.6 |
| 20260503204555 | 70 | 272 | 12.0 | 21.0 | 0.00 | 0.00 | 0.00 | 35 | 1005.7 |
| 20260503203038 | 70 | 255 | 12.0 | 21.0 | 0.00 | 0.00 | 0.00 | 34 | 1005.8 |
| 20260503201538 | 69 | 255 | 12.0 | 22.0 | 0.00 | 0.00 | 0.00 | 37 | 1005.9 |
| 20260503200043 | 69 | 265 | 12.0 | 21.0 | 0.00 | 0.00 | 0.00 | 35 | 1005.9 |
| 20260503194534 | 69 | 284 | 11.0 | 21.0 | 0.00 | 0.00 | 0.00 | 38 | 1006.0 |
| 20260503193034 | 70 | 269 | 16.0 | 24.0 | 0.00 | 0.00 | 0.00 | 35 | 1005.9 |
| 20260503191530 | 69 | 280 | 14.0 | 21.0 | 0.00 | 0.00 | 0.00 | 34 | 1006.0 |
| 20260503190042 | 69 | 280 | 16.0 | 23.0 | 0.00 | 0.00 | 0.00 | 35 | 1006.2 |
| 20260503184529 | 68 | 271 | 18.0 | 23.0 | 0.00 | 0.00 | 0.00 | 36 | 1006.1 |
| 20260503183025 | 68 | 284 | 10.0 | 22.0 | 0.00 | 0.00 | 0.00 | 39 | 1006.3 |
| 20260503181521 | 67 | 252 | 13.0 | 25.0 | 0.00 | 0.00 | 0.00 | 40 | 1006.4 |
| 20260503180021 | 68 | 264 | 16.0 | 22.0 | 0.00 | 0.00 | 0.00 | 41 | 1006.4 |
| 20260503174518 | 67 | 284 | 15.0 | 28.0 | 0.00 | 0.00 | 0.00 | 41 | 1006.6 |